IZ3TCG-13 Weather Reports


Display with metric or nautical units.
time (UTC)temp
F
wind
direction
speed
MPH
gust
MPH
rain 1hr
in
rain 24hr
in
rain mn
in
humidity
%
barometer
mb
20260509064403 67 25 0.0 2.0 0.00 0.00 0.00 75 1014.3
20260509064003 67 62 0.0 2.0 0.00 0.00 0.00 76 1014.3
20260509063603 66 64 0.0 2.0 0.00 0.00 0.00 77 1014.4
20260509063412 66 66 1.0 2.0 0.00 0.00 0.00 79 1014.3
20260509062803 64 270 0.0 2.0 0.00 0.00 0.00 82 1014.2
20260509062616 63 268 0.0 2.0 0.00 0.00 0.00 81 1014.1
20260509062003 64 231 1.0 2.0 0.00 0.00 0.00 83 1013.9
20260509061603 63 225 1.0 2.0 0.00 0.00 0.00 85 1014.1
20260509061203 62 244 0.0 2.0 0.00 0.00 0.00 86 1014.4
20260509061014 62 240 0.0 2.0 0.00 0.00 0.00 86 1014.3
20260509060403 61 268 0.0 2.0 0.00 0.00 0.00 86 1014.2
20260509060004 61 265 0.0 2.0 0.00 0.00 0.00 88 1014.4
20260509055603 61 262 2.0 2.0 0.00 0.00 0.00 87 1014.3
20260509055203 60 262 0.0 2.0 0.00 0.00 0.00 89 1013.9
20260509054803 60 265 0.0 2.0 0.00 0.00 0.00 90 1014.3
20260509054403 59 270 0.0 2.0 0.00 0.00 0.00 92 1014.2
20260509054003 58 270 0.0 2.0 0.00 0.00 0.00 94 1014.1
20260509053603 57 270 0.0 2.0 0.00 0.00 0.00 96 1014.2
20260509053203 57 270 1.0 2.0 0.00 0.00 0.00 98 1013.9
20260509052803 56 270 0.0 2.0 0.00 0.00 0.00 99 1014.3
20260509052403 56 270 0.0 2.0 0.00 0.00 0.00 99 1014.0
20260509052003 56 270 0.0 2.0 0.00 0.00 0.00 99 1014.1
20260509051603 56 270 1.0 2.0 0.00 0.00 0.00 99 1014.0
20260509051204 56 270 0.0 2.0 0.00 0.00 0.00 99 1013.9
20260509051014 55 0 0.0 0.0 0.00 0.00 0.00 99 1014.1
20260509050403 55 0 0.0 0.0 0.00 0.00 0.00 99 1013.9
20260509050004 55 237 0.0 2.0 0.00 0.00 0.00 99 1013.9
20260509045603 55 237 0.0 2.0 0.00 0.00 0.00 99 1013.8
20260509045203 54 225 0.0 2.0 0.00 0.00 0.00 99 1013.9
20260509045016 54 0 0.0 0.0 0.00 0.00 0.00 99 1014.1
20260509044403 54 0 0.0 0.0 0.00 0.00 0.00 99 1013.9
20260509044004 54 0 0.0 0.0 0.00 0.00 0.00 99 1013.8
20260509043814 54 0 0.0 0.0 0.00 0.00 0.00 99 1013.8
20260509043203 53 0 0.0 0.0 0.00 0.00 0.00 99 1013.9
20260509042803 53 0 0.0 0.0 0.00 0.00 0.00 99 1013.9
20260509042403 53 0 0.0 0.0 0.00 0.00 0.00 99 1013.8
20260509042003 53 0 0.0 0.0 0.00 0.00 0.00 99 1013.6
20260509041603 53 0 0.0 0.0 0.00 0.00 0.00 99 1013.7
20260509041203 53 0 0.0 0.0 0.00 0.00 0.00 99 1013.8
20260509040804 53 0 0.0 0.0 0.00 0.00 0.00 99 1013.8
20260509040403 53 0 0.0 0.0 0.00 0.00 0.00 99 1013.9
20260509040004 53 0 0.0 0.0 0.00 0.00 0.00 99 1013.5
20260509035603 53 0 0.0 0.0 0.00 0.00 0.00 99 1013.8
20260509035203 53 0 0.0 0.0 0.00 0.00 0.00 99 1013.8
20260509034803 53 0 0.0 0.0 0.00 0.00 0.00 99 1013.8
20260509034403 53 0 0.0 0.0 0.00 0.00 0.00 99 1013.6
20260509034003 53 0 0.0 0.0 0.00 0.00 0.00 99 1014.0
20260509033603 53 0 0.0 0.0 0.00 0.00 0.00 99 1013.8
20260509033203 53 0 0.0 0.0 0.00 0.00 0.00 99 1013.6
20260509032803 54 0 0.0 0.0 0.00 0.00 0.00 99 1013.9
20260509032404 54 0 0.0 0.0 0.00 0.00 0.00 99 1013.7
20260509032003 54 0 0.0 0.0 0.00 0.00 0.00 99 1013.9
20260509031817 53 0 0.0 0.0 0.00 0.00 0.00 99 1013.9
20260509031203 54 0 0.0 0.0 0.00 0.00 0.00 99 1013.9
20260509030803 54 0 0.0 0.0 0.00 0.00 0.00 99 1013.7
20260509030615 54 0 0.0 0.0 0.00 0.00 0.00 99 1013.6
20260509030003 54 0 0.0 0.0 0.00 0.00 0.00 99 1013.7
20260509025603 53 0 0.0 0.0 0.00 0.00 0.00 99 1013.8
20260509025204 54 0 0.0 0.0 0.00 0.00 0.00 99 1013.6
20260509024803 54 0 0.0 0.0 0.00 0.00 0.00 99 1013.8
20260509024403 54 0 0.0 0.0 0.00 0.00 0.00 99 1013.6
20260509024216 54 0 0.0 0.0 0.00 0.00 0.00 99 1013.7
20260509023603 54 0 0.0 0.0 0.00 0.00 0.00 99 1013.8
20260509023203 54 0 0.0 0.0 0.00 0.00 0.00 99 1013.7
20260509022803 54 0 0.0 0.0 0.00 0.00 0.00 99 1013.8
20260509022403 54 0 0.0 0.0 0.00 0.00 0.00 99 1014.0
20260509022003 54 0 0.0 0.0 0.00 0.00 0.00 99 1013.7
20260509021603 54 0 0.0 0.0 0.00 0.00 0.00 99 1013.6
20260509021203 54 0 0.0 0.0 0.00 0.00 0.00 99 1013.9
20260509020805 54 0 0.0 0.0 0.00 0.00 0.00 99 1013.9
20260509020616 54 0 0.0 0.0 0.00 0.00 0.00 99 1013.7
20260509020003 54 0 0.0 0.0 0.00 0.00 0.00 99 1013.6
20260509015603 54 0 0.0 0.0 0.00 0.00 0.00 99 1013.7
20260509015414 54 0 0.0 0.0 0.00 0.00 0.00 99 1013.8
20260509014803 54 0 0.0 0.0 0.00 0.00 0.00 99 1013.5
20260509014403 54 0 0.0 0.0 0.00 0.00 0.00 99 1013.9
20260509014003 54 0 0.0 0.0 0.00 0.00 0.00 99 1013.8
20260509013603 54 0 0.0 0.0 0.00 0.00 0.00 99 1013.5
20260509013203 54 0 0.0 0.0 0.00 0.00 0.00 99 1013.4
20260509012803 55 0 0.0 0.0 0.00 0.00 0.00 99 1013.6
20260509012403 55 0 0.0 0.0 0.00 0.00 0.00 99 1013.6
20260509012003 55 0 0.0 0.0 0.00 0.00 0.00 99 1013.5
20260509011603 55 0 0.0 0.0 0.00 0.00 0.00 99 1013.4
20260509011203 55 0 0.0 0.0 0.00 0.00 0.00 99 1013.4
20260509011017 55 0 0.0 0.0 0.00 0.00 0.00 99 1013.5
20260509010403 55 0 0.0 0.0 0.00 0.00 0.00 99 1013.4
20260509010003 55 0 0.0 0.0 0.00 0.00 0.00 99 1013.6
20260509005603 55 0 0.0 0.0 0.00 0.00 0.00 99 1013.6
20260509005203 55 0 0.0 0.0 0.00 0.00 0.00 99 1013.7
20260509004803 55 0 0.0 0.0 0.00 0.00 0.00 99 1013.5
20260509004613 55 0 0.0 0.0 0.00 0.00 0.00 99 1013.2
20260509004218 55 0 0.0 0.0 0.00 0.00 0.00 99 1013.6
20260509003817 55 0 0.0 0.0 0.00 0.00 0.00 99 1013.6
20260509003203 55 0 0.0 0.0 0.00 0.00 0.00 99 1013.5
20260509002803 55 0 0.0 0.0 0.00 0.00 0.00 99 1013.2
20260509002403 56 0 0.0 0.0 0.00 0.00 0.00 99 1013.4
20260509002003 56 0 0.0 0.0 0.00 0.00 0.00 99 1013.4
20260509001603 55 0 0.0 0.0 0.00 0.00 0.00 99 1013.3
20260509001203 56 0 0.0 0.0 0.00 0.00 0.00 98 1013.5
20260509000804 56 0 0.0 0.0 0.00 0.00 0.00 98 1013.2
20260509000617 56 0 0.0 0.0 0.00 0.00 0.00 98 1013.5
20260509000003 56 0 0.0 0.0 0.00 0.00 0.00 98 1013.7
20260508235603 56 0 0.0 0.0 0.00 0.00 0.00 98 1013.1
20260508235203 56 0 0.0 0.0 0.00 0.00 0.00 98 1013.4
20260508234803 56 0 0.0 0.0 0.00 0.00 0.00 98 1013.5
20260508234403 56 0 0.0 0.0 0.00 0.00 0.00 98 1013.3
20260508234003 56 0 0.0 0.0 0.00 0.00 0.00 98 1013.4
20260508233603 56 0 0.0 0.0 0.00 0.00 0.00 98 1013.4
20260508233204 56 0 0.0 0.0 0.00 0.00 0.00 98 1013.4
20260508232803 56 0 0.0 0.0 0.00 0.00 0.00 98 1013.3
20260508232403 56 0 0.0 0.0 0.00 0.00 0.00 97 1013.5
20260508232003 56 0 0.0 0.0 0.00 0.00 0.00 97 1013.6
20260508231603 57 0 0.0 0.0 0.00 0.00 0.00 97 1013.5
20260508231203 56 0 0.0 0.0 0.00 0.00 0.00 97 1013.5
20260508230803 56 0 0.0 0.0 0.00 0.00 0.00 97 1013.4
20260508230403 57 0 0.0 0.0 0.00 0.00 0.00 97 1013.8
20260508230003 57 0 0.0 0.0 0.00 0.00 0.00 97 1013.6
20260508225816 57 0 0.0 0.0 0.00 0.00 0.00 97 1013.6
20260508225203 57 0 0.0 0.0 0.00 0.00 0.00 97 1013.7
20260508224803 57 0 0.0 0.0 0.00 0.00 0.00 97 1013.6
20260508224614 57 0 0.0 0.0 0.00 0.00 0.00 97 1013.5
20260508224214 57 0 0.0 0.0 0.00 0.00 0.00 97 1013.7
20260508223813 57 0 0.0 0.0 0.00 0.00 0.00 97 1013.5
20260508223203 57 0 0.0 0.0 0.00 0.00 0.00 96 1013.6
20260508223017 57 0 0.0 0.0 0.00 0.00 0.00 96 1013.7
20260508222404 58 0 0.0 0.0 0.00 0.00 0.00 95 1013.7
20260508222003 58 0 0.0 0.0 0.00 0.00 0.00 96 1013.7
20260508221603 58 0 0.0 0.0 0.00 0.00 0.00 96 1013.6
20260508221203 57 0 0.0 0.0 0.00 0.00 0.00 96 1013.6
20260508221014 57 0 0.0 0.0 0.00 0.00 0.00 95 1013.7
20260508220403 58 0 0.0 0.0 0.00 0.00 0.00 95 1013.5
20260508220007 58 0 0.0 0.0 0.00 0.00 0.00 95 1013.5
20260508215604 58 0 0.0 0.0 0.00 0.00 0.00 94 1013.6
20260508215203 58 0 0.0 0.0 0.00 0.00 0.00 94 1013.5
20260508214803 58 0 0.0 0.0 0.00 0.00 0.00 94 1013.5
20260508214403 58 0 0.0 0.0 0.00 0.00 0.00 93 1013.5
20260508214003 58 0 0.0 0.0 0.00 0.00 0.00 93 1013.5
20260508213603 58 0 0.0 0.0 0.00 0.00 0.00 93 1013.4
20260508213203 59 0 0.0 0.0 0.00 0.00 0.00 92 1013.4
20260508213013 59 0 0.0 0.0 0.00 0.00 0.00 92 1013.3
20260508212403 59 0 0.0 0.0 0.00 0.00 0.00 92 1013.4
20260508212003 59 0 0.0 0.0 0.00 0.00 0.00 91 1013.3
20260508211603 60 0 0.0 0.0 0.00 0.00 0.00 91 1013.2
20260508211203 60 0 0.0 0.0 0.00 0.00 0.00 90 1013.3
20260508210803 60 0 0.0 0.0 0.00 0.00 0.00 90 1013.5
20260508210614 60 0 0.0 0.0 0.00 0.00 0.00 90 1013.4
20260508210213 60 0 0.0 0.0 0.00 0.00 0.00 90 1013.4
20260508205604 60 0 0.0 0.0 0.00 0.00 0.00 89 1013.5
20260508205203 60 0 0.0 0.0 0.00 0.00 0.00 89 1013.2
20260508204803 60 0 0.0 0.0 0.00 0.00 0.00 89 1013.5
20260508204403 61 0 0.0 0.0 0.00 0.00 0.00 88 1013.4
20260508204215 61 0 0.0 0.0 0.00 0.00 0.00 88 1013.3
20260508203603 61 0 0.0 0.0 0.00 0.00 0.00 87 1013.6
20260508203203 61 0 0.0 0.0 0.00 0.00 0.00 86 1013.5
20260508202803 61 0 0.0 0.0 0.00 0.00 0.00 86 1013.5
20260508202404 62 202 0.0 2.0 0.00 0.00 0.00 85 1013.3
20260508202003 62 202 0.0 2.0 0.00 0.00 0.00 85 1013.5
20260508201603 62 202 0.0 2.0 0.00 0.00 0.00 85 1013.1
20260508201203 62 202 0.0 2.0 0.00 0.00 0.00 84 1013.6
20260508200803 62 202 0.0 2.0 0.00 0.00 0.00 83 1013.3
20260508200403 62 0 0.0 0.0 0.00 0.00 0.00 82 1013.3
20260508200004 62 0 0.0 0.0 0.00 0.00 0.00 82 1013.1
20260508195603 62 0 0.0 0.0 0.00 0.00 0.00 81 1013.0
20260508195203 63 180 0.0 2.0 0.00 0.00 0.00 80 1013.1
20260508194803 63 180 0.0 2.0 0.00 0.00 0.00 79 1013.1
20260508194403 63 186 0.0 2.0 0.00 0.00 0.00 79 1012.9
20260508194004 63 192 0.0 2.0 0.00 0.00 0.00 78 1012.9
20260508193603 63 180 0.0 2.0 0.00 0.00 0.00 77 1012.8
20260508193203 63 0 0.0 0.0 0.00 0.00 0.00 78 1012.9
20260508192803 63 0 0.0 0.0 0.00 0.00 0.00 77 1012.8
20260508192405 63 0 0.0 0.0 0.00 0.00 0.00 76 1012.8
20260508192003 63 0 0.0 0.0 0.00 0.00 0.00 77 1012.6
20260508191603 63 0 0.0 0.0 0.00 0.00 0.00 77 1012.9
20260508191203 63 0 0.0 0.0 0.00 0.00 0.00 76 1012.6
20260508191016 64 0 0.0 0.0 0.00 0.00 0.00 76 1012.5
20260508190615 64 0 0.0 0.0 0.00 0.00 0.00 76 1012.6
20260508190004 64 0 0.0 0.0 0.00 0.00 0.00 75 1012.2
20260508185603 64 0 0.0 0.0 0.00 0.00 0.00 75 1012.5
20260508185203 64 0 0.0 0.0 0.00 0.00 0.00 74 1012.4
20260508185017 64 225 0.0 2.0 0.00 0.00 0.00 74 1012.3
20260508184403 65 225 0.0 2.0 0.00 0.00 0.00 72 1012.4
20260508184216 65 225 0.0 2.0 0.00 0.00 0.00 72 1012.1
20260508183603 65 225 0.0 2.0 0.00 0.00 0.00 72 1012.2
20260508183203 65 225 0.0 2.0 0.00 0.00 0.00 71 1012.2
20260508182803 65 0 0.0 0.0 0.00 0.00 0.00 71 1012.2
20260508182614 66 0 0.0 0.0 0.00 0.00 0.00 71 1012.0
20260508182003 66 0 0.0 0.0 0.00 0.00 0.00 70 1012.0
20260508181812 67 0 0.0 0.0 0.00 0.00 0.00 70 1012.1
20260508181203 67 191 0.0 2.0 0.00 0.00 0.00 70 1012.0
20260508181016 67 191 0.0 2.0 0.00 0.00 0.00 69 1012.0
20260508180403 67 112 0.0 2.0 0.00 0.00 0.00 69 1011.9
20260508180004 67 112 0.0 2.0 0.00 0.00 0.00 68 1011.8
20260508175603 68 112 0.0 2.0 0.00 0.00 0.00 67 1011.8
20260508175203 68 137 0.0 2.0 0.00 0.00 0.00 67 1011.7
20260508174803 68 156 0.0 2.0 0.00 0.00 0.00 67 1011.7
20260508174618 68 172 0.0 2.0 0.00 0.00 0.00 65 1011.7
20260508174003 69 170 1.0 4.0 0.00 0.00 0.00 65 1011.7
20260508173603 69 166 0.0 4.0 0.00 0.00 0.00 64 1011.6
20260508173203 69 174 1.0 4.0 0.00 0.00 0.00 63 1011.7
20260508172804 69 189 0.0 4.0 0.00 0.00 0.00 64 1011.6
20260508172614 69 197 2.0 4.0 0.00 0.00 0.00 62 1011.4
20260508172003 69 193 2.0 4.0 0.00 0.00 0.00 62 1011.7
20260508171603 69 153 1.0 2.0 0.00 0.00 0.00 64 1011.6
20260508171204 70 184 1.0 2.0 0.00 0.00 0.00 65 1011.6
20260508170803 70 164 0.0 2.0 0.00 0.00 0.00 64 1011.5
20260508170403 69 128 0.0 6.0 0.00 0.00 0.00 65 1011.5
20260508170003 69 130 0.0 6.0 0.00 0.00 0.00 65 1011.5
20260508165603 69 118 0.0 6.0 0.00 0.00 0.00 64 1011.6
20260508165414 69 121 1.0 4.0 0.00 0.00 0.00 65 1011.7
20260508164804 70 139 1.0 4.0 0.00 0.00 0.00 64 1011.4
20260508164403 70 154 0.0 4.0 0.00 0.00 0.00 63 1011.7
20260508164008 71 157 0.0 2.0 0.00 0.00 0.00 62 1011.6
20260508163604 71 151 0.0 2.0 0.00 0.00 0.00 61 1011.9
20260508163203 71 116 0.0 2.0 0.00 0.00 0.00 60 1011.6
20260508163016 71 123 0.0 4.0 0.00 0.00 0.00 57 1011.6
20260508162403 71 104 0.0 4.0 0.00 0.00 0.00 58 1011.6
20260508162004 71 83 2.0 4.0 0.00 0.00 0.00 58 1011.4
20260508161604 72 73 1.0 2.0 0.00 0.00 0.00 57 1011.5
20260508161203 72 138 0.0 2.0 0.00 0.00 0.00 57 1011.6
20260508160804 72 147 0.0 4.0 0.00 0.00 0.00 60 1011.3
20260508160403 71 94 1.0 4.0 0.00 0.00 0.00 55 1011.6
20260508160004 71 89 1.0 7.0 0.00 0.00 0.00 61 1011.5
20260508155816 71 83 2.0 7.0 0.00 0.00 0.00 59 1011.5
20260508155203 71 90 3.0 7.0 0.00 0.00 0.00 59 1011.4
20260508154805 71 96 2.0 6.0 0.00 0.00 0.00 59 1011.6
20260508154404 71 83 1.0 8.0 0.00 0.00 0.00 59 1011.4
20260508154004 71 78 0.0 8.0 0.00 0.00 0.00 60 1011.6
20260508153603 71 80 4.0 7.0 0.00 0.00 0.00 58 1011.4
20260508153204 71 89 1.0 7.0 0.00 0.00 0.00 58 1011.5
20260508152803 72 83 0.0 4.0 0.00 0.00 0.00 57 1011.4
20260508152616 72 76 0.0 6.0 0.00 0.00 0.00 60 1011.4
20260508152004 71 78 1.0 6.0 0.00 0.00 0.00 61 1011.6
20260508151604 72 91 2.0 6.0 0.00 0.00 0.00 58 1011.3
20260508151203 72 82 1.0 4.0 0.00 0.00 0.00 59 1011.6
20260508151018 72 81 0.0 4.0 0.00 0.00 0.00 58 1011.6
20260508150403 73 86 2.0 4.0 0.00 0.00 0.00 60 1011.3
20260508150004 74 80 2.0 4.0 0.00 0.00 0.00 57 1011.6
20260508145603 75 86 0.0 4.0 0.00 0.00 0.00 59 1011.9
20260508145416 74 94 0.0 4.0 0.00 0.00 0.00 57 1011.6
20260508144803 73 96 0.0 7.0 0.00 0.00 0.00 62 1011.8
20260508144403 73 104 0.0 7.0 0.00 0.00 0.00 59 1011.8
20260508144003 73 108 3.0 7.0 0.00 0.00 0.00 58 1011.6
20260508143604 74 87 2.0 6.0 0.00 0.00 0.00 56 1011.5
20260508143203 74 81 2.0 8.0 0.00 0.00 0.00 58 1011.8
20260508142804 73 82 1.0 8.0 0.00 0.00 0.00 59 1011.6
20260508142403 74 85 4.0 8.0 0.00 0.00 0.00 58 1011.6
20260508142004 73 90 1.0 9.0 0.00 0.00 0.00 58 1011.7
20260508141603 73 91 3.0 9.0 0.00 0.00 0.00 58 1011.7
20260508141203 74 85 2.0 9.0 0.00 0.00 0.00 59 1011.7
20260508140804 74 85 0.0 8.0 0.00 0.00 0.00 56 1011.6
20260508140403 73 93 4.0 7.0 0.00 0.00 0.00 56 1011.7
20260508140004 73 86 2.0 9.0 0.00 0.00 0.00 58 1011.9
20260508135603 73 79 4.0 9.0 0.00 0.00 0.00 60 1011.9
20260508135203 74 90 2.0 6.0 0.00 0.00 0.00 58 1011.6
20260508134804 74 85 2.0 6.0 0.00 0.00 0.00 57 1011.8
20260508134615 74 92 2.0 6.0 0.00 0.00 0.00 58 1012.0
20260508134003 75 107 2.0 7.0 0.00 0.00 0.00 59 1011.9
20260508133603 75 101 2.0 7.0 0.00 0.00 0.00 56 1012.2
20260508133203 74 107 2.0 9.0 0.00 0.00 0.00 61 1012.1
20260508132804 73 98 3.0 9.0 0.00 0.00 0.00 58 1012.1
20260508132403 73 100 2.0 8.0 0.00 0.00 0.00 60 1012.0
20260508132004 74 95 2.0 8.0 0.00 0.00 0.00 60 1012.0
20260508131604 74 103 1.0 7.0 0.00 0.00 0.00 60 1012.0
20260508131204 74 97 2.0 6.0 0.00 0.00 0.00 62 1012.0
20260508130804 74 102 2.0 8.0 0.00 0.00 0.00 62 1012.1
20260508130403 74 101 2.0 8.0 0.00 0.00 0.00 64 1012.2
20260508130004 74 103 3.0 8.0 0.00 0.00 0.00 66 1012.2
20260508125603 74 93 2.0 6.0 0.00 0.00 0.00 64 1012.1
20260508125203 74 89 2.0 6.0 0.00 0.00 0.00 62 1012.1
20260508124803 74 90 2.0 6.0 0.00 0.00 0.00 60 1012.1
20260508124404 75 116 1.0 4.0 0.00 0.00 0.00 57 1012.2
20260508124004 75 105 1.0 7.0 0.00 0.00 0.00 57 1012.2
20260508123603 74 94 0.0 7.0 0.00 0.00 0.00 57 1012.4
20260508123203 73 95 3.0 7.0 0.00 0.00 0.00 58 1012.3
20260508122803 74 86 2.0 6.0 0.00 0.00 0.00 57 1012.2
20260508122403 75 86 2.0 6.0 0.00 0.00 0.00 57 1012.3
20260508122004 75 90 2.0 4.0 0.00 0.00 0.00 54 1012.3
20260508121603 75 122 2.0 2.0 0.00 0.00 0.00 56 1012.5
20260508121203 76 121 1.0 4.0 0.00 0.00 0.00 52 1012.5
20260508121015 75 119 1.0 4.0 0.00 0.00 0.00 55 1012.6
20260508120403 74 96 3.0 6.0 0.00 0.00 0.00 57 1012.5
20260508120214 74 95 2.0 6.0 0.00 0.00 0.00 58 1012.5
20260508115603 74 87 2.0 6.0 0.00 0.00 0.00 59 1012.6
20260508115204 74 72 2.0 6.0 0.00 0.00 0.00 56 1012.4
20260508115017 75 53 3.0 6.0 0.00 0.00 0.00 56 1012.5
20260508114404 76 18 0.0 4.0 0.00 0.00 0.00 52 1012.6
20260508114003 77 87 2.0 4.0 0.00 0.00 0.00 54 1012.4
20260508113603 77 275 1.0 4.0 0.00 0.00 0.00 56 1012.3
20260508113204 76 350 1.0 4.0 0.00 0.00 0.00 54 1012.4
20260508113014 75 2 1.0 6.0 0.00 0.00 0.00 54 1012.5
20260508112404 74 2 1.0 7.0 0.00 0.00 0.00 60 1012.6
20260508112003 75 360 2.0 7.0 0.00 0.00 0.00 55 1012.5
20260508111603 77 27 4.0 7.0 0.00 0.00 0.00 58 1012.5
20260508111204 75 32 0.0 6.0 0.00 0.00 0.00 55 1012.6
20260508110804 74 28 1.0 6.0 0.00 0.00 0.00 61 1012.6
20260508110404 75 28 2.0 6.0 0.00 0.00 0.00 59 1012.6
20260508110004 77 60 3.0 6.0 0.00 0.00 0.00 60 1012.7
20260508105604 74 58 1.0 6.0 0.00 0.00 0.00 62 1012.8
20260508105203 75 85 2.0 6.0 0.00 0.00 0.00 62 1012.9
20260508104803 74 93 0.0 8.0 0.00 0.00 0.00 61 1012.8
20260508104404 72 106 2.0 8.0 0.00 0.00 0.00 69 1013.0
20260508104004 73 106 5.0 8.0 0.00 0.00 0.00 68 1013.0
20260508103603 73 107 2.0 8.0 0.00 0.00 0.00 67 1013.1
20260508103203 73 100 1.0 7.0 0.00 0.00 0.00 65 1012.8
20260508102803 73 88 2.0 6.0 0.00 0.00 0.00 62 1013.0
20260508102404 73 99 1.0 6.0 0.00 0.00 0.00 64 1012.9
20260508102004 73 94 3.0 8.0 0.00 0.00 0.00 65 1012.9
20260508101603 72 97 2.0 8.0 0.00 0.00 0.00 62 1013.2
20260508101203 73 86 3.0 7.0 0.00 0.00 0.00 64 1013.0
20260508100803 72 93 1.0 7.0 0.00 0.00 0.00 63 1013.2
20260508100403 72 96 2.0 7.0 0.00 0.00 0.00 61 1013.1
20260508095604 74 69 2.0 6.0 0.00 0.00 0.00 65 1016.1
20260508095204 74 55 3.0 7.0 0.00 0.00 0.00 63 1016.2
20260508094804 73 73 2.0 7.0 0.00 0.00 0.00 63 1016.2
20260508094404 72 108 2.0 8.0 0.00 0.00 0.00 65 1016.1
20260508094004 71 100 2.0 8.0 0.00 0.00 0.00 62 1016.1
20260508093603 70 97 2.0 8.0 0.00 0.00 0.00 67 1016.2
20260508093414 69 85 1.0 7.0 0.00 0.00 0.00 71 1016.3
20260508092803 72 83 2.0 6.0 0.00 0.00 0.00 66 1016.4
20260508092403 74 17 2.0 4.0 0.00 0.00 0.00 64 1016.2
20260508092003 71 347 2.0 4.0 0.00 0.00 0.00 71 1016.3
20260508091817 71 342 2.0 4.0 0.00 0.00 0.00 67 1016.2
20260508091204 72 347 2.0 4.0 0.00 0.00 0.00 66 1016.2
20260508091016 72 357 2.0 4.0 0.00 0.00 0.00 68 1016.2
20260508090403 72 13 1.0 4.0 0.00 0.00 0.00 68 1016.2
20260508090004 71 14 2.0 6.0 0.00 0.00 0.00 71 1016.3
20260508085603 70 7 2.0 6.0 0.00 0.00 0.00 72 1016.3
20260508085418 69 6 2.0 6.0 0.00 0.00 0.00 72 1016.4
20260508084804 70 346 1.0 6.0 0.00 0.00 0.00 73 1016.2
20260508084404 69 347 2.0 6.0 0.00 0.00 0.00 74 1016.1
20260508084216 69 346 1.0 6.0 0.00 0.00 0.00 74 1016.0
20260508083603 69 350 1.0 6.0 0.00 0.00 0.00 75 1016.4
20260508083204 69 356 2.0 6.0 0.00 0.00 0.00 74 1016.1
20260508082804 69 13 3.0 6.0 0.00 0.00 0.00 76 1016.1
20260508082404 67 34 1.0 6.0 0.00 0.00 0.00 76 1016.1
20260508082003 67 34 1.0 6.0 0.00 0.00 0.00 78 1016.5
20260508081603 68 57 3.0 6.0 0.00 0.00 0.00 77 1016.2
20260508081417 68 46 2.0 4.0 0.00 0.00 0.00 77 1016.4
20260508080803 67 64 2.0 7.0 0.00 0.00 0.00 79 1016.1
20260508080403 66 76 2.0 7.0 0.00 0.00 0.00 81 1016.1
20260508080004 67 77 2.0 6.0 0.00 0.00 0.00 80 1016.0
20260508075603 67 75 2.0 8.0 0.00 0.00 0.00 80 1015.9
20260508075204 67 76 3.0 8.0 0.00 0.00 0.00 79 1016.0
20260508074803 66 79 5.0 8.0 0.00 0.00 0.00 80 1016.0
20260508074617 66 73 5.0 8.0 0.00 0.00 0.00 79 1016.1
20260508074004 67 33 2.0 7.0 0.00 0.00 0.00 80 1016.0
20260508073604 67 22 0.0 4.0 0.00 0.00 0.00 80 1015.8
20260508073204 66 18 0.0 4.0 0.00 0.00 0.00 82 1016.2
20260508072804 65 22 0.0 4.0 0.00 0.00 0.00 82 1016.0
20260508072403 65 20 2.0 4.0 0.00 0.00 0.00 84 1016.0
20260508072004 65 21 2.0 6.0 0.00 0.00 0.00 83 1016.0
20260508071603 65 46 1.0 6.0 0.00 0.00 0.00 85 1016.0
20260508071203 65 36 3.0 6.0 0.00 0.00 0.00 86 1016.0
20260508071017 65 39 1.0 6.0 0.00 0.00 0.00 86 1015.9
20260508070403 64 51 2.0 6.0 0.00 0.00 0.00 86 1016.0
20260508070004 64 71 1.0 6.0 0.00 0.00 0.00 86 1016.1
20260508065603 64 71 4.0 6.0 0.00 0.00 0.00 87 1015.9
20260508065204 64 49 2.0 6.0 0.00 0.00 0.00 88 1016.0